Regional Weather Roundup
Issued by NWS

Home | Current Version | Previous Version | Graphics & Text | Print | Product List | Glossary On
Versions: 1 2 3 4 5 6 7 8 9 10 11 12 13 14 15 16 17 18 19 20 21 22 23 24 25 26 27 28 29 30 31 32 33 34 35 36 37 38 39 40 41 42 43 44 45 46 47 48 49 50
000
ASUS43 KLSX 221107
RWRMO

WEATHER SUMMARY FOR MISSOURI
NATIONAL WEATHER SERVICE SPRINGFIELD MO
600 AM CDT TUE JUL 22 2014

NOTE: "FAIR" INDICATES FEW OR NO CLOUDS BELOW 12,000 FEET WITH NO
       SIGNIFICANT WEATHER AND/OR OBSTRUCTIONS TO VISIBILITY.
       CURRENT SKY AND/OR WEATHER CONDITIONS ARE NOT AVAILABLE FOR
       CHILLICOTHE AND FARMINGTON.

MOZ001>031-035>038-043-044-053-054-221200-
...NORTHERN AND WESTERN MISSOURI...

CITY           SKY/WX    TMP DP  RH WIND       PRES   REMARKS
KANSAS CTY INT PTCLDY    76  73  91 S12       30.01R
KANSAS C DTWN  CLEAR     79  73  82 S10       30.00R
LEE`S SUMMIT   CLEAR     75  72  90 S8        30.03R
ST JOSEPH      CLEAR     77  75  93 S10       29.97R
CHILLICOTHE      N/A     76  71  85 S7        30.02S
KIRKSVILLE     PTCLDY    74  68  81 S8        30.04S

$$
MOZ066>068-077>081-088>096-101>105-221200-
...SOUTHWEST MISSOURI...

CITY           SKY/WX    TMP DP  RH WIND       PRES   REMARKS
SPRINGFIELD    CLEAR     70  66  87 SE9       30.09R
JOPLIN         CLEAR     72  68  87 S7        30.07R

$$
MOZ032>034-039>042-045>050-055>058-069>072-221200-
...CENTRAL MISSOURI...

CITY           SKY/WX    TMP DP  RH WIND       PRES   REMARKS
COLUMBIA       CLEAR     69  66  90 S5        30.07R
JEFFERSON CITY CLEAR     71  65  81 E5        30.06S
ROLLA          CLEAR     69  63  81 S12       30.08S
SEDALIA        CLEAR     72  66  81 S7        30.07R
WHITEMAN AFB   PTCLDY    70  60  70 S8        30.05R
OSAGE BEACH    CLEAR     70  64  83 S5        30.07R

$$
MOZ051-052-059>065-221200-
...EAST CENTRAL MISSOURI...

CITY           SKY/WX    TMP DP  RH WIND       PRES   REMARKS
ST LOUIS INTL  CLEAR     74  65  73 SW3       30.09R
SPIRIT OF STL  CLEAR     67  64  90 CALM      30.07S
ST CHARLES     CLEAR     66  64  93 E3        30.08R

$$
MOZ072>076-082>087-097>100-106>115-221200-
...SOUTH CENTRAL AND SOUTHEAST MISSOURI...

CITY           SKY/WX    TMP DP  RH WIND       PRES   REMARKS
CAPE GIRARDEAU FOG       64  63  96 CALM      30.10R VSB 1/4
FARMINGTON     PTCLDY    63  61  94 CALM      30.14S
POPLAR BLUFF   CLEAR     62  59  90 CALM      30.10R FOG
WEST PLAINS    CLEAR     63  60  90 SW3       30.13R

$$



USA.gov is the U.S. government's official web portal to all federal, state and local government web resources and services.